Location: Alafon
(8.4500°N, 4.2333°E)
Time: 18:32:55
(UTC+00:00)

deb Explorer IX - Pass Details

Date: 29 July 2021
Orbit: 545 x 1091 km, 38.8° (Epoch: 20 September)

Event Time Altitude Azimuth Distance (km) Brightness Sun altitude
Rises 09:34:58 0° 203° (SSW) 2,694 ? 55.8°
Reaches altitude 10° 09:37:37 10° 185° (S) 1,822 ? 56.4°
Maximum altitude 09:40:43 20° 136° (SE) 1,335 ? 57.1°
Drops below altitude 10° 09:43:58 10° 88° (E) 1,938 ? 57.9°
Sets 09:46:53 0° 72° (ENE) 2,926 ? 58.5°
